Regional Weather Roundup
Issued by NWS

Home | Current Version | Previous Version | Graphics & Text | Print | Product List | Glossary On
Versions: 1 2 3 4 5 6 7 8 9 10 11 12 13 14 15 16 17 18 19 20 21 22 23 24 25 26 27 28 29 30 31 32 33 34 35 36 37 38 39 40 41 42 43 44 45 46 47 48 49 50
000
ASUS45 KSLC 211410
RWRUT

UTAH REGIONAL WEATHER ROUNDUP
NATIONAL WEATHER SERVICE SALT LAKE CITY UT
700 AM MST FRI NOV 21 2014

UTZ001>011-023>025-211500-

NORTHERN UTAH

CITY           SKY/WX    TMP DP  RH WIND       PRES   REMARKS
BRIGHAM CITY   CLEAR     26  22  84 W3        30.04R
HILL AFB       CLEAR     31  19  59 SE18      30.01S WCI  19
LOGAN          CLEAR     22  18  85 CALM      30.04S
OGDEN          CLEAR     28  20  71 W5        30.01S WCI  23
PROVO AIRPORT  PTCLDY    21  16  79 CALM      30.04S
SALT LAKE CITY PTCLDY    27  22  81 E7        30.01S WCI  19
VERNAL         PTCLDY    19  10  68 W5        30.08R WCI  12
WENDOVER       PTCLDY    21  10  63 CALM      30.02S
HEBER CITY     PTCLDY    19  14  79 CALM      30.06S
WEST JORDAN    CLEAR     30  21  69 SW6       30.01F WCI  24

$$

UTZ012>022-026-027-211500-

SOUTHERN/CENTRAL UTAH

CITY           SKY/WX    TMP DP  RH WIND       PRES   REMARKS
BLANDING       CLOUDY    29  18  63 N3        30.12S
BRYCE CANYON   PTCLDY    18  14  84 W6        30.05R WCI  10
CEDAR CITY     PTCLDY    26  21  81 CALM      30.00R
DELTA          CLOUDY    28  20  72 NE8       30.01R WCI  20
MILFORD        MOCLDY    25  20  81 CALM      30.00R
MOAB/CYNLANDS  CLEAR     18   7  62 CALM      30.07R
PRICE          PTCLDY    22  12  65 CALM      30.05R
ST GEORGE      MOSUNNY   39  16  38 CALM      30.00R

$$

REGIONAL REPORTS     COLORADO/ARIZONA

CITY           SKY/WX    TMP DP  RH WIND       PRES   REMARKS
CRAIG, CO      PTCLDY    15  11  83 W3        30.07R
GRAND JUNCTION CLEAR     20  15  81 E5        30.08R WCI  13
RIFLE          CLEAR     22  16  78 SW3       30.10R
MONTROSE       PTCLDY    20  16  84 SE7       30.11R WCI  11
CORTEZ         CLEAR     21  18  88 E3        30.06S
PAGE, AZ       NOT AVBL
GRAND CANYON   CLOUDY    26  16  65 CALM      30.02R
KINGMAN        MOCLDY    46  15  28 SE8       29.94R
FLAGSTAFF      CLOUDY    28  16  60 CALM      30.02R

$$

REGIONAL REPORTS    NEVADA/IDAHO/WYOMING

CITY           SKY/WX    TMP DP  RH WIND       PRES   REMARKS
LAS VEGAS, NV  MOCLDY    52  18  26 SW6       29.90R
ELY            PTCLDY    16  10  77 S7        30.03R WCI   6
ELKO           CLEAR     24  21  88 CALM      30.00S
POCATELLO, ID  CLEAR     19  18  95 CALM      30.04R
BURLEY         PTCLDY    23  20  88 NE5       30.01S FOG     WCI  17
EVANSTON, WY   PTCLDY    22  11  62 S8        30.03S WCI  12
ROCK SPRINGS   PTCLDY    24  13  62 SW13      30.04R WCI  12

$$


USA.gov is the U.S. government's official web portal to all federal, state and local government web resources and services.